Weather History for Fort Leonard Wood, MO

Change the Weather History Date:

Sunday, April 6, 2014

  Actual Average Record
Temperature  
Mean Temperature 50 °F -  
Max Temperature 60 °F 63 °F 82 °F (2001)
Min Temperature 40 °F 45 °F 30 °F (2007)
Degree Days  
Heating Degree Days 16    
Moisture  
Dew Point 33 °F    
Average Humidity 54    
Maximum Humidity 86    
Minimum Humidity 30    
Precipitation  
Precipitation 0.00 in - - ()
Sea Level Pressure  
Sea Level Pressure 29.97 in    
Wind  
Wind Speed 6 mph (SE)    
Max Wind Speed 12 mph    
Max Gust Speed -    
Visibility 10 miles    
Events      
Averages and records for this station are not official NWS values.
T = Trace of Precipitation, MM = Missing Value Source: NWS Daily Summary

Daily Weather History Graph

Daily Weather History Graph

Search for Another Location

Airport:

Trip Planner

Search our weather history database for the weather conditions in past years. The results will help you decide how hot, cold, wet, or windy it might be!

Date:

Astronomy

Apr. 06, 2014 Rise Set
Actual Time 6:46 AM CDT 7:36 PM CDT
Civil Twilight 6:19 AM CDT 8:02 PM CDT
Nautical Twilight 5:48 AM CDT 8:34 PM CDT
Astronomical Twilight 5:15 AM CDT 9:06 PM CDT
Moon 11:51 AM CDT (4/6) 1:28 AM CDT (4/6)
Length of Visible Light 13h 42m
Length of Day
12h 49m
Waxing Crescent, 44% of the Moon is Illuminated
Apr 6
Waxing Crescent
Apr 7
First Quarter
Apr 15
Full
Apr 22
Last Quarter
Apr 29
New

Hourly Weather History & Observations

Time (CDT) Temp. Windchill Dew Point Humidity Pressure Visibility Wind Dir Wind Speed Gust Speed Precip Events Conditions
12:58 AM 44.1 °F 40.1 °F 34.9 °F 70% 30.10 in 10.0 mi SSE 6.9 mph - N/A   Mostly Cloudy
1:58 AM 43.9 °F 39.9 °F 35.6 °F 73% 30.11 in 10.0 mi SSE 6.9 mph - N/A   Clear
2:58 AM 43.5 °F - 36.7 °F 77% 30.09 in 10.0 mi SSE 2.3 mph - N/A   Partly Cloudy
3:58 AM 42.6 °F 40.9 °F 37.2 °F 81% 30.09 in 10.0 mi South 3.5 mph - N/A   Scattered Clouds
4:58 AM 42.6 °F 40.9 °F 37.2 °F 81% 30.09 in 10.0 mi South 3.5 mph - N/A   Overcast
6:58 AM 40.8 °F 36.9 °F 37.0 °F 86% 30.06 in 10.0 mi ENE 5.8 mph - N/A   Clear
7:58 AM 42.1 °F 39.2 °F 37.0 °F 82% 30.07 in 10.0 mi East 4.6 mph - N/A   Partly Cloudy
8:58 AM 46.9 °F - 37.2 °F 69% 30.06 in 10.0 mi ESE 6.9 mph - N/A   Mostly Cloudy
10:58 AM 52.9 °F - 36.0 °F 53% 30.03 in 10.0 mi East 4.6 mph - N/A   Scattered Clouds
11:58 AM 56.1 °F - 34.3 °F 44% 29.99 in 10.0 mi Variable 4.6 mph - N/A   Clear
12:58 PM 58.6 °F - 33.3 °F 38% 29.96 in 10.0 mi East 10.4 mph - N/A   Scattered Clouds
1:58 PM 59.0 °F - 30.7 °F 34% 29.95 in 10.0 mi East 11.5 mph - N/A   Mostly Cloudy
2:58 PM 59.0 °F - 28.8 °F 32% 29.93 in 10.0 mi ESE 9.2 mph - N/A   Mostly Cloudy
3:58 PM 58.6 °F - 27.1 °F 30% 29.91 in 10.0 mi ESE 8.1 mph - N/A   Mostly Cloudy
4:58 PM 59.5 °F - 27.7 °F 30% 29.86 in 10.0 mi SE 6.9 mph - N/A   Scattered Clouds
5:58 PM 58.6 °F - 30.4 °F 34% 29.86 in 10.0 mi SE 6.9 mph - N/A   Mostly Cloudy
6:58 PM 56.3 °F - 32.2 °F 40% 29.88 in 10.0 mi SE 3.5 mph - N/A   Overcast
7:58 PM 54.9 °F - 30.6 °F 40% 29.86 in 10.0 mi SSE 2.3 mph - N/A   Overcast
8:58 PM 53.6 °F - 31.5 °F 43% 29.87 in 10.0 mi SSE 3.5 mph - N/A   Overcast
9:58 PM 52.9 °F - 32.5 °F 46% 29.87 in 10.0 mi SSE 3.5 mph - N/A   Scattered Clouds
10:58 PM 52.5 °F - 31.6 °F 45% 29.82 in 10.0 mi ENE 4.6 mph - N/A   Mostly Cloudy